Time,TemperatureF,DewpointF,PressureIn,WindDirection,WindDirectionDegrees,WindSpeedMPH,WindSpeedGustMPH,Humidity,HourlyPrecipIn,Conditions,Clouds,dailyrainin,SoftwareType,DateUTC
2013-08-28 00:00:00,80.9,65.2,29.86,SW,233,4.0,7.0,59,0.00,,CLR,0.00,VWS V14.01,2013-08-28 05:00:00,
2013-08-28 00:05:00,80.7,65.1,29.86,SW,235,5.0,7.0,59,0.00,,CLR,0.00,VWS V14.01,2013-08-28 05:05:00,
2013-08-28 00:10:00,80.5,65.3,29.86,SW,235,6.0,9.0,60,0.00,,CLR,0.00,VWS V14.01,2013-08-28 05:10:00,
2013-08-28 00:15:00,80.3,65.2,29.86,SW,217,4.0,6.0,60,0.00,,CLR,0.00,VWS V14.01,2013-08-28 05:15:00,
2013-08-28 00:20:00,80.2,65.1,29.86,WSW,253,6.0,9.0,60,0.00,,CLR,0.00,VWS V14.01,2013-08-28 05:20:00,
2013-08-28 00:25:00,80.0,65.4,29.86,WSW,241,4.0,6.0,61,0.00,,CLR,0.00,VWS V14.01,2013-08-28 05:25:00,
2013-08-28 00:30:00,79.9,65.3,29.86,SW,236,3.0,7.0,61,0.00,,CLR,0.00,VWS V14.01,2013-08-28 05:30:00,
2013-08-28 00:35:00,79.8,65.2,29.87,SW,216,3.0,10.0,61,0.00,,CLR,0.00,VWS V14.01,2013-08-28 05:35:00,
2013-08-28 00:40:00,79.7,65.1,29.87,SSW,211,7.0,8.0,61,0.00,,CLR,0.00,VWS V14.01,2013-08-28 05:40:00,
2013-08-28 00:45:00,79.6,65.0,29.87,WSW,238,6.0,6.0,61,0.00,,CLR,0.00,VWS V14.01,2013-08-28 05:45:00,
2013-08-28 00:50:00,79.4,65.3,29.87,South,190,5.0,6.0,62,0.00,,CLR,0.00,VWS V14.01,2013-08-28 05:50:00,
2013-08-28 00:55:00,79.3,65.2,29.87,WSW,239,5.0,7.0,62,0.00,,CLR,0.00,VWS V14.01,2013-08-28 05:55:00,
2013-08-28 01:00:00,79.2,65.1,29.87,SW,215,4.0,8.0,62,0.00,,CLR,0.00,VWS V14.01,2013-08-28 06:00:00,
2013-08-28 01:05:00,79.1,65.0,29.87,South,184,4.0,6.0,62,0.00,,CLR,0.00,VWS V14.01,2013-08-28 06:05:00,
2013-08-28 01:10:00,79.0,65.3,29.87,SSW,198,4.0,8.0,63,0.00,,CLR,0.00,VWS V14.01,2013-08-28 06:10:00,
2013-08-28 01:15:00,78.8,65.2,29.88,SW,220,4.0,7.0,63,0.00,,CLR,0.00,VWS V14.01,2013-08-28 06:15:00,
2013-08-28 01:20:00,78.6,65.4,29.88,SW,226,6.0,6.0,64,0.00,,CLR,0.00,VWS V14.01,2013-08-28 06:20:00,
2013-08-28 01:25:00,78.4,65.2,29.88,SW,220,3.0,4.0,64,0.00,,CLR,0.00,VWS V14.01,2013-08-28 06:25:00,
2013-08-28 01:30:00,78.3,65.1,29.88,South,185,6.0,6.0,64,0.00,,CLR,0.00,VWS V14.01,2013-08-28 06:30:00,
2013-08-28 01:35:00,78.0,65.3,29.87,SSW,201,3.0,4.0,65,0.00,,CLR,0.00,VWS V14.01,2013-08-28 06:35:00,
2013-08-28 01:40:00,77.9,65.2,29.87,SSW,199,6.0,6.0,65,0.00,,CLR,0.00,VWS V14.01,2013-08-28 06:40:00,
2013-08-28 01:45:00,77.8,65.1,29.87,SW,219,5.0,7.0,65,0.00,,CLR,0.00,VWS V14.01,2013-08-28 06:45:00,
2013-08-28 01:50:00,77.7,65.4,29.87,SSW,212,3.0,6.0,66,0.00,,CLR,0.00,VWS V14.01,2013-08-28 06:50:00,
2013-08-28 01:55:00,77.7,65.4,29.87,SW,217,2.0,6.0,66,0.00,,CLR,0.00,VWS V14.01,2013-08-28 06:55:00,
2013-08-28 02:00:00,77.6,65.3,29.87,SW,216,3.0,7.0,66,0.00,,CLR,0.00,VWS V14.01,2013-08-28 07:00:00,
2013-08-28 02:05:00,77.4,65.2,29.87,WSW,238,3.0,5.0,66,0.00,,CLR,0.00,VWS V14.01,2013-08-28 07:05:00,
2013-08-28 02:10:00,77.4,65.2,29.87,WSW,237,3.0,6.0,66,0.00,,CLR,0.00,VWS V14.01,2013-08-28 07:10:00,
2013-08-28 02:15:00,77.2,65.4,29.87,WSW,244,1.0,3.0,67,0.00,,CLR,0.00,VWS V14.01,2013-08-28 07:15:00,
2013-08-28 02:20:00,77.1,65.3,29.87,WSW,238,2.0,5.0,67,0.00,,CLR,0.00,VWS V14.01,2013-08-28 07:20:00,
2013-08-28 02:25:00,77.0,65.2,29.88,SW,231,1.0,3.0,67,0.00,,CLR,0.00,VWS V14.01,2013-08-28 07:25:00,
2013-08-28 02:30:00,76.9,65.1,29.88,SW,234,1.0,2.0,67,0.00,,CLR,0.00,VWS V14.01,2013-08-28 07:30:00,
2013-08-28 02:35:00,76.7,65.3,29.88,SSW,203,1.0,4.0,68,0.00,,CLR,0.00,VWS V14.01,2013-08-28 07:35:00,
2013-08-28 02:40:00,76.6,65.3,29.88,SSW,193,2.0,4.0,68,0.00,,CLR,0.00,VWS V14.01,2013-08-28 07:40:00,
2013-08-28 02:45:00,76.4,65.5,29.88,SSW,212,1.0,3.0,69,0.00,,CLR,0.00,VWS V14.01,2013-08-28 07:45:00,
2013-08-28 02:50:00,76.3,65.4,29.88,SSW,197,0.0,3.0,69,0.00,,CLR,0.00,VWS V14.01,2013-08-28 07:50:00,
2013-08-28 02:55:00,76.1,65.2,29.88,WSW,238,2.0,3.0,69,0.00,,CLR,0.00,VWS V14.01,2013-08-28 07:55:00,
2013-08-28 03:00:00,76.1,65.2,29.88,SW,216,3.0,4.0,69,0.00,,CLR,0.00,VWS V14.01,2013-08-28 08:00:00,
2013-08-28 03:05:00,75.9,65.4,29.88,SW,230,1.0,3.0,70,0.00,,CLR,0.00,VWS V14.01,2013-08-28 08:05:00,
2013-08-28 03:10:00,75.7,65.2,29.88,South,191,2.0,2.0,70,0.00,,CLR,0.00,VWS V14.01,2013-08-28 08:10:00,
2013-08-28 03:15:00,75.5,65.4,29.88,SSW,208,1.0,4.0,71,0.00,,CLR,0.00,VWS V14.01,2013-08-28 08:15:00,
2013-08-28 03:20:00,75.4,65.3,29.88,SW,224,2.0,3.0,71,0.00,,CLR,0.00,VWS V14.01,2013-08-28 08:20:00,
2013-08-28 03:25:00,75.4,65.3,29.88,WSW,243,3.0,4.0,71,0.00,,CLR,0.00,VWS V14.01,2013-08-28 08:25:00,
2013-08-28 03:30:00,75.4,65.3,29.88,WSW,237,2.0,4.0,71,0.00,,CLR,0.00,VWS V14.01,2013-08-28 08:30:00,
2013-08-28 03:35:00,75.3,65.3,29.88,SSW,209,1.0,4.0,71,0.00,,CLR,0.00,VWS V14.01,2013-08-28 08:35:00,
2013-08-28 03:41:00,75.1,65.5,29.88,SW,235,1.0,3.0,72,0.00,,CLR,0.00,VWS V14.01,2013-08-28 08:41:00,
2013-08-28 03:46:00,74.9,65.3,29.88,SW,235,1.0,3.0,72,0.00,,CLR,0.00,VWS V14.01,2013-08-28 08:46:00,
2013-08-28 03:51:00,74.8,65.2,29.88,SW,235,0.0,2.0,72,0.00,,CLR,0.00,VWS V14.01,2013-08-28 08:51:00,
2013-08-28 03:56:00,74.6,65.0,29.88,SW,235,1.0,1.0,72,0.00,,CLR,0.00,VWS V14.01,2013-08-28 08:56:00,
2013-08-28 04:01:00,74.5,65.3,29.88,SW,235,0.0,3.0,73,0.00,,CLR,0.00,VWS V14.01,2013-08-28 09:01:00,
2013-08-28 04:06:00,74.5,65.3,29.88,SW,235,2.0,2.0,73,0.00,,CLR,0.00,VWS V14.01,2013-08-28 09:06:00,
2013-08-28 04:11:00,74.5,65.3,29.88,SW,235,2.0,2.0,73,0.00,,CLR,0.00,VWS V14.01,2013-08-28 09:11:00,
2013-08-28 04:16:00,74.5,65.3,29.88,WSW,237,4.0,4.0,73,0.00,,CLR,0.00,VWS V14.01,2013-08-28 09:16:00,
2013-08-28 04:21:00,74.6,65.4,29.88,SW,235,1.0,4.0,73,0.00,,CLR,0.00,VWS V14.01,2013-08-28 09:21:00,
2013-08-28 04:26:00,74.5,65.3,29.88,SW,235,0.0,1.0,73,0.00,,CLR,0.00,VWS V14.01,2013-08-28 09:26:00,
2013-08-28 04:31:00,74.4,65.2,29.88,SSW,204,0.0,2.0,73,0.00,,CLR,0.00,VWS V14.01,2013-08-28 09:31:00,
2013-08-28 04:33:00,74.3,65.1,29.89,SSW,204,0.0,2.0,73,0.00,,CLR,0.00,VWS V14.01,2013-08-28 09:33:00,
2013-08-28 04:39:00,74.2,65.0,29.89,SW,231,2.0,4.0,73,0.00,,CLR,0.00,VWS V14.01,2013-08-28 09:39:00,
2013-08-28 04:44:00,74.1,64.9,29.89,SW,236,2.0,3.0,73,0.00,,CLR,0.00,VWS V14.01,2013-08-28 09:44:00,
2013-08-28 04:49:00,73.9,65.1,29.89,WSW,237,1.0,4.0,74,0.00,,CLR,0.00,VWS V14.01,2013-08-28 09:49:00,
2013-08-28 04:54:00,73.7,64.9,29.89,WSW,237,2.0,3.0,74,0.00,,CLR,0.00,VWS V14.01,2013-08-28 09:54:00,
2013-08-28 04:59:00,73.5,65.1,29.89,WSW,237,0.0,3.0,75,0.00,,CLR,0.00,VWS V14.01,2013-08-28 09:59:00,
2013-08-28 05:04:00,73.3,64.9,29.89,WSW,237,1.0,3.0,75,0.00,,CLR,0.00,VWS V14.01,2013-08-28 10:04:00,
2013-08-28 05:09:00,73.1,64.7,29.89,SW,224,2.0,5.0,75,0.00,,CLR,0.00,VWS V14.01,2013-08-28 10:09:00,
2013-08-28 05:14:00,73.0,65.0,29.89,SW,222,1.0,3.0,76,0.00,,CLR,0.00,VWS V14.01,2013-08-28 10:14:00,
2013-08-28 05:19:00,72.8,64.8,29.89,SW,224,1.0,3.0,76,0.00,,CLR,0.00,VWS V14.01,2013-08-28 10:19:00,
2013-08-28 05:24:00,72.6,65.0,29.89,SW,224,1.0,3.0,77,0.00,,CLR,0.00,VWS V14.01,2013-08-28 10:24:00,
2013-08-28 05:29:00,72.6,65.0,29.89,SW,223,2.0,2.0,77,0.00,,CLR,0.00,VWS V14.01,2013-08-28 10:29:00,
2013-08-28 05:34:00,72.5,64.9,29.89,SW,223,1.0,3.0,77,0.00,,CLR,0.00,VWS V14.01,2013-08-28 10:34:00,
2013-08-28 05:39:00,72.4,64.8,29.89,SW,224,2.0,2.0,77,0.00,,CLR,0.00,VWS V14.01,2013-08-28 10:39:00,
2013-08-28 05:44:00,72.4,64.8,29.89,SW,225,0.0,3.0,77,0.00,,CLR,0.00,VWS V14.01,2013-08-28 10:44:00,
2013-08-28 05:49:00,72.3,64.7,29.89,SW,225,2.0,2.0,77,0.00,,CLR,0.00,VWS V14.01,2013-08-28 10:49:00,
2013-08-28 05:54:00,72.2,64.6,29.90,WSW,238,0.0,2.0,77,0.00,,CLR,0.00,VWS V14.01,2013-08-28 10:54:00,
2013-08-28 05:59:00,72.2,64.6,29.90,SW,233,1.0,3.0,77,0.00,,CLR,0.00,VWS V14.01,2013-08-28 10:59:00,
2013-08-28 06:04:00,72.2,64.6,29.90,WSW,240,1.0,2.0,77,0.00,,CLR,0.00,VWS V14.01,2013-08-28 11:04:00,
2013-08-28 06:09:00,72.3,64.7,29.90,WSW,240,1.0,2.0,77,0.00,,CLR,0.00,VWS V14.01,2013-08-28 11:09:00,
2013-08-28 06:14:00,72.3,64.7,29.90,WSW,240,0.0,1.0,77,0.00,,CLR,0.00,VWS V14.01,2013-08-28 11:14:00,
2013-08-28 06:19:00,72.3,64.7,29.90,WSW,240,2.0,3.0,77,0.00,,CLR,0.00,VWS V14.01,2013-08-28 11:19:00,
2013-08-28 06:24:00,72.2,64.6,29.90,WSW,238,1.0,2.0,77,0.00,,CLR,0.00,VWS V14.01,2013-08-28 11:24:00,
2013-08-28 06:29:00,72.2,64.6,29.90,SSW,210,1.0,3.0,77,0.00,,CLR,0.00,VWS V14.01,2013-08-28 11:29:00,
2013-08-28 06:34:00,72.3,64.7,29.90,WSW,245,2.0,3.0,77,0.00,,CLR,0.00,VWS V14.01,2013-08-28 11:34:00,
2013-08-28 06:39:00,72.3,64.7,29.91,SW,225,3.0,3.0,77,0.00,,CLR,0.00,VWS V14.01,2013-08-28 11:39:00,
2013-08-28 06:44:00,72.3,65.1,29.91,SW,225,2.0,2.0,78,0.00,,CLR,0.00,VWS V14.01,2013-08-28 11:44:00,
2013-08-28 06:49:00,72.3,65.1,29.91,SW,228,0.0,4.0,78,0.00,,CLR,0.00,VWS V14.01,2013-08-28 11:49:00,
2013-08-28 06:54:00,72.4,65.2,29.91,WSW,239,0.0,1.0,78,0.00,,CLR,0.00,VWS V14.01,2013-08-28 11:54:00,
2013-08-28 06:59:00,72.4,65.2,29.91,WSW,239,2.0,3.0,78,0.00,,CLR,0.00,VWS V14.01,2013-08-28 11:59:00,
2013-08-28 07:04:00,72.4,65.2,29.91,WSW,239,2.0,2.0,78,0.00,,CLR,0.00,VWS V14.01,2013-08-28 12:04:00,
2013-08-28 07:09:00,72.4,65.2,29.91,WSW,239,0.0,3.0,78,0.00,,CLR,0.00,VWS V14.01,2013-08-28 12:09:00,
2013-08-28 07:14:00,72.4,65.2,29.91,WSW,239,3.0,3.0,78,0.00,,CLR,0.00,VWS V14.01,2013-08-28 12:14:00,
2013-08-28 07:19:00,72.6,65.3,29.91,WSW,239,1.0,3.0,78,0.00,,CLR,0.00,VWS V14.01,2013-08-28 12:19:00,
2013-08-28 07:24:00,72.7,65.4,29.91,WSW,239,1.0,2.0,78,0.00,,CLR,0.00,VWS V14.01,2013-08-28 12:24:00,
2013-08-28 07:29:00,72.9,65.7,29.91,WSW,237,6.0,6.0,78,0.00,,CLR,0.00,VWS V14.01,2013-08-28 12:29:00,
2013-08-28 07:34:00,73.1,65.8,29.91,WSW,241,3.0,3.0,78,0.00,,CLR,0.00,VWS V14.01,2013-08-28 12:34:00,
2013-08-28 07:39:00,73.3,65.7,29.91,SW,233,3.0,3.0,77,0.00,,CLR,0.00,VWS V14.01,2013-08-28 12:39:00,
2013-08-28 07:44:00,73.4,65.8,29.91,SW,233,3.0,3.0,77,0.00,,CLR,0.00,VWS V14.01,2013-08-28 12:44:00,
2013-08-28 07:49:00,73.7,66.1,29.91,SW,233,2.0,3.0,77,0.00,,CLR,0.00,VWS V14.01,2013-08-28 12:49:00,
2013-08-28 07:54:00,73.9,66.2,29.91,SW,229,3.0,3.0,77,0.00,,CLR,0.00,VWS V14.01,2013-08-28 12:54:00,
2013-08-28 07:59:00,74.1,66.4,29.92,SW,231,1.0,3.0,77,0.00,,CLR,0.00,VWS V14.01,2013-08-28 12:59:00,
2013-08-28 08:04:00,74.5,66.4,29.92,WSW,246,2.0,2.0,76,0.00,,CLR,0.00,VWS V14.01,2013-08-28 13:04:00,
2013-08-28 08:09:00,74.7,66.6,29.92,West,259,1.0,3.0,76,0.00,,CLR,0.00,VWS V14.01,2013-08-28 13:09:00,
2013-08-28 08:14:00,75.0,66.9,29.92,WSW,247,0.0,2.0,76,0.00,,CLR,0.00,VWS V14.01,2013-08-28 13:14:00,
2013-08-28 08:19:00,75.1,67.0,29.92,WSW,247,2.0,2.0,76,0.00,,CLR,0.00,VWS V14.01,2013-08-28 13:19:00,
2013-08-28 08:24:00,75.2,66.7,29.92,WSW,241,2.0,3.0,75,0.00,,CLR,0.00,VWS V14.01,2013-08-28 13:24:00,
2013-08-28 08:29:00,75.4,67.3,29.92,SW,235,1.0,3.0,76,0.00,,CLR,0.00,VWS V14.01,2013-08-28 13:29:00,
2013-08-28 08:34:00,75.7,67.2,29.92,WSW,240,2.0,2.0,75,0.00,,CLR,0.00,VWS V14.01,2013-08-28 13:34:00,
2013-08-28 08:39:00,75.9,67.4,29.92,WSW,239,2.0,4.0,75,0.00,,CLR,0.00,VWS V14.01,2013-08-28 13:39:00,
2013-08-28 08:45:00,75.9,67.0,29.93,WSW,238,2.0,5.0,74,0.00,,CLR,0.00,VWS V14.01,2013-08-28 13:45:00,
2013-08-28 08:50:00,76.0,67.5,29.93,WSW,245,1.0,4.0,75,0.00,,CLR,0.00,VWS V14.01,2013-08-28 13:50:00,
2013-08-28 08:55:00,76.2,67.7,29.93,WSW,243,2.0,4.0,75,0.00,,CLR,0.00,VWS V14.01,2013-08-28 13:55:00,
2013-08-28 09:00:00,76.5,68.0,29.93,WSW,239,4.0,5.0,75,0.00,,CLR,0.00,VWS V14.01,2013-08-28 14:00:00,
2013-08-28 09:05:00,76.8,67.9,29.93,WSW,237,1.0,4.0,74,0.00,,CLR,0.00,VWS V14.01,2013-08-28 14:05:00,
2013-08-28 09:10:00,77.2,68.3,29.93,WSW,237,1.0,5.0,74,0.00,,CLR,0.00,VWS V14.01,2013-08-28 14:10:00,
2013-08-28 09:15:00,77.6,68.3,29.93,SW,236,4.0,5.0,73,0.00,,CLR,0.00,VWS V14.01,2013-08-28 14:15:00,
2013-08-28 09:20:00,77.9,68.6,29.92,WSW,251,3.0,5.0,73,0.00,,CLR,0.00,VWS V14.01,2013-08-28 14:20:00,
2013-08-28 09:25:00,78.1,68.8,29.92,WSW,243,3.0,5.0,73,0.00,,CLR,0.00,VWS V14.01,2013-08-28 14:25:00,
2013-08-28 09:30:00,78.3,68.5,29.92,WSW,237,3.0,7.0,72,0.00,,CLR,0.00,VWS V14.01,2013-08-28 14:30:00,
2013-08-28 09:35:00,78.7,68.9,29.92,WSW,237,5.0,6.0,72,0.00,,CLR,0.00,VWS V14.01,2013-08-28 14:35:00,
2013-08-28 09:40:00,79.0,68.8,29.93,WSW,242,2.0,4.0,71,0.00,,CLR,0.00,VWS V14.01,2013-08-28 14:40:00,
2013-08-28 09:45:00,79.5,69.7,29.93,SSW,201,4.0,5.0,72,0.00,,CLR,0.00,VWS V14.01,2013-08-28 14:45:00,
2013-08-28 09:50:00,80.0,69.3,29.93,SW,234,3.0,6.0,70,0.00,,CLR,0.00,VWS V14.01,2013-08-28 14:50:00,
2013-08-28 09:55:00,80.0,69.3,29.93,SW,224,7.0,7.0,70,0.00,,CLR,0.00,VWS V14.01,2013-08-28 14:55:00,
2013-08-28 10:00:00,80.1,69.9,29.93,WSW,238,5.0,5.0,71,0.00,,CLR,0.00,VWS V14.01,2013-08-28 15:00:00,
2013-08-28 10:05:00,80.5,70.2,29.93,WSW,241,3.0,7.0,71,0.00,,CLR,0.00,VWS V14.01,2013-08-28 15:05:00,
2013-08-28 10:10:00,81.0,69.9,29.93,WSW,239,1.0,6.0,69,0.00,,CLR,0.00,VWS V14.01,2013-08-28 15:10:00,
2013-08-28 10:15:00,81.5,70.4,29.93,SW,226,2.0,4.0,69,0.00,,CLR,0.00,VWS V14.01,2013-08-28 15:15:00,
2013-08-28 10:20:00,82.0,70.8,29.93,SSW,197,2.0,4.0,69,0.00,,CLR,0.00,VWS V14.01,2013-08-28 15:20:00,
2013-08-28 10:25:00,82.5,71.3,29.93,SW,220,2.0,4.0,69,0.00,,CLR,0.00,VWS V14.01,2013-08-28 15:25:00,
2013-08-28 10:30:00,83.1,71.0,29.93,SW,234,4.0,5.0,67,0.00,,CLR,0.00,VWS V14.01,2013-08-28 15:30:00,
2013-08-28 10:35:00,83.2,71.1,29.93,SSW,196,2.0,5.0,67,0.00,,CLR,0.00,VWS V14.01,2013-08-28 15:35:00,
2013-08-28 10:40:00,83.5,71.4,29.93,South,191,7.0,7.0,67,0.00,,CLR,0.00,VWS V14.01,2013-08-28 15:40:00,
2013-08-28 10:45:00,83.8,71.7,29.93,SW,235,5.0,8.0,67,0.00,,CLR,0.00,VWS V14.01,2013-08-28 15:45:00,
2013-08-28 10:50:00,83.7,71.6,29.93,SW,221,4.0,6.0,67,0.00,,CLR,0.00,VWS V14.01,2013-08-28 15:50:00,
2013-08-28 10:55:00,83.7,71.6,29.93,SW,233,5.0,6.0,67,0.00,,CLR,0.00,VWS V14.01,2013-08-28 15:55:00,
2013-08-28 11:00:00,84.0,71.9,29.93,South,190,7.0,8.0,67,0.00,,CLR,0.00,VWS V14.01,2013-08-28 16:00:00,
2013-08-28 11:05:00,84.6,72.4,29.93,SW,228,3.0,7.0,67,0.00,,CLR,0.00,VWS V14.01,2013-08-28 16:05:00,
2013-08-28 11:10:00,85.0,72.8,29.93,WSW,243,3.0,5.0,67,0.00,,CLR,0.00,VWS V14.01,2013-08-28 16:10:00,
2013-08-28 11:15:00,85.4,71.8,29.93,SW,220,5.0,10.0,64,0.00,,CLR,0.00,VWS V14.01,2013-08-28 16:15:00,
2013-08-28 11:20:00,85.5,71.9,29.92,SW,221,5.0,6.0,64,0.00,,CLR,0.00,VWS V14.01,2013-08-28 16:20:00,
2013-08-28 11:25:00,85.7,72.1,29.93,WSW,238,1.0,6.0,64,0.00,,CLR,0.00,VWS V14.01,2013-08-28 16:25:00,
2013-08-28 11:30:00,86.3,71.8,29.93,South,188,8.0,9.0,62,0.00,,CLR,0.00,VWS V14.01,2013-08-28 16:30:00,
2013-08-28 11:35:00,86.6,71.6,29.92,SSE,164,6.0,9.0,61,0.00,,CLR,0.00,VWS V14.01,2013-08-28 16:35:00,
2013-08-28 11:40:00,87.1,72.0,29.93,South,188,8.0,8.0,61,0.00,,CLR,0.00,VWS V14.01,2013-08-28 16:40:00,
2013-08-28 11:45:00,87.5,71.9,29.93,SSW,211,4.0,7.0,60,0.00,,CLR,0.00,VWS V14.01,2013-08-28 16:45:00,
2013-08-28 11:50:00,87.7,72.1,29.93,South,191,9.0,9.0,60,0.00,,CLR,0.00,VWS V14.01,2013-08-28 16:50:00,
2013-08-28 11:55:00,88.1,72.0,29.93,SSW,195,7.0,8.0,59,0.00,,CLR,0.00,VWS V14.01,2013-08-28 16:55:00,
2013-08-28 12:00:00,88.6,72.4,29.93,SW,214,4.0,7.0,59,0.00,,CLR,0.00,VWS V14.01,2013-08-28 17:00:00,
2013-08-28 12:06:00,88.8,71.6,29.92,SW,236,4.0,7.0,57,0.00,,CLR,0.00,VWS V14.01,2013-08-28 17:06:00,
2013-08-28 12:11:00,88.5,71.8,29.92,WSW,242,4.0,5.0,58,0.00,,CLR,0.00,VWS V14.01,2013-08-28 17:11:00,
2013-08-28 12:16:00,88.6,72.4,29.92,SW,219,5.0,6.0,59,0.00,,CLR,0.00,VWS V14.01,2013-08-28 17:16:00,
2013-08-28 12:21:00,89.0,71.8,29.93,SSW,207,3.0,7.0,57,0.00,,CLR,0.00,VWS V14.01,2013-08-28 17:21:00,
2013-08-28 12:26:00,89.5,72.8,29.93,SSW,210,7.0,8.0,58,0.00,,CLR,0.00,VWS V14.01,2013-08-28 17:26:00,
2013-08-28 12:31:00,89.6,71.3,29.93,SW,225,4.0,11.0,55,0.00,,CLR,0.00,VWS V14.01,2013-08-28 17:31:00,
2013-08-28 12:36:00,89.3,71.0,29.92,South,173,5.0,12.0,55,0.00,,CLR,0.00,VWS V14.01,2013-08-28 17:36:00,
2013-08-28 12:41:00,89.7,71.4,29.92,SW,235,5.0,8.0,55,0.00,,CLR,0.00,VWS V14.01,2013-08-28 17:41:00,
2013-08-28 12:46:00,90.1,71.2,29.92,SW,222,3.0,7.0,54,0.00,,CLR,0.00,VWS V14.01,2013-08-28 17:46:00,
2013-08-28 13:04:00,90.7,71.2,29.92,SW,233,3.0,11.0,53,0.00,,CLR,0.00,VWS V14.01,2013-08-28 18:04:00,
2013-08-28 13:09:00,90.6,70.6,29.92,South,191,3.0,7.0,52,0.00,,CLR,0.00,VWS V14.01,2013-08-28 18:09:00,
2013-08-28 13:14:00,90.9,70.3,29.92,SSW,197,11.0,11.0,51,0.00,,CLR,0.00,VWS V14.01,2013-08-28 18:14:00,
2013-08-28 13:19:00,90.9,67.3,29.92,SW,220,3.0,8.0,46,0.00,,CLR,0.00,VWS V14.01,2013-08-28 18:19:00,
2013-08-28 13:24:00,90.9,69.1,29.91,SSW,206,7.0,8.0,49,0.00,,CLR,0.00,VWS V14.01,2013-08-28 18:24:00,
2013-08-28 13:29:00,90.8,67.8,29.91,South,189,3.0,7.0,47,0.00,,CLR,0.00,VWS V14.01,2013-08-28 18:29:00,
2013-08-28 13:34:00,91.1,68.7,29.91,WSW,238,6.0,9.0,48,0.00,,CLR,0.00,VWS V14.01,2013-08-28 18:34:00,
2013-08-28 13:39:00,91.4,68.3,29.91,South,191,5.0,7.0,47,0.00,,CLR,0.00,VWS V14.01,2013-08-28 18:39:00,
2013-08-28 13:44:00,91.6,67.9,29.91,South,187,6.0,7.0,46,0.00,,FEW250,0.00,VWS V14.01,2013-08-28 18:44:00,
2013-08-28 13:49:00,91.4,67.7,29.91,SSW,210,5.0,7.0,46,0.00,,FEW250,0.00,VWS V14.01,2013-08-28 18:49:00,
2013-08-28 13:54:00,91.5,69.1,29.91,SW,218,5.0,5.0,48,0.00,,FEW250,0.00,VWS V14.01,2013-08-28 18:54:00,
2013-08-28 13:59:00,91.5,67.8,29.91,SW,235,5.0,10.0,46,0.00,,FEW250,0.00,VWS V14.01,2013-08-28 18:59:00,
2013-08-28 14:04:00,91.5,65.9,29.91,South,183,5.0,8.0,43,0.00,,FEW250,0.00,VWS V14.01,2013-08-28 19:04:00,
2013-08-28 14:09:00,91.9,62.7,29.92,SSW,195,5.0,13.0,38,0.00,,FEW250,0.00,VWS V14.01,2013-08-28 19:09:00,
2013-08-28 14:14:00,92.3,63.8,29.91,South,183,8.0,11.0,39,0.00,,FEW250,0.00,VWS V14.01,2013-08-28 19:14:00,
2013-08-28 14:19:00,92.3,65.2,29.92,SW,220,4.0,10.0,41,0.00,,FEW250,0.00,VWS V14.01,2013-08-28 19:19:00,
2013-08-28 14:24:00,92.1,62.1,29.91,SW,229,5.0,7.0,37,0.00,,FEW250,0.00,VWS V14.01,2013-08-28 19:24:00,
2013-08-28 14:29:00,92.0,62.8,29.91,SW,216,2.0,5.0,38,0.00,,FEW250,0.00,VWS V14.01,2013-08-28 19:29:00,
2013-08-28 14:35:00,92.0,65.6,29.92,WSW,241,5.0,7.0,42,0.00,,FEW250,0.00,VWS V14.01,2013-08-28 19:35:00,
2013-08-28 14:40:00,92.2,65.8,29.91,SSE,168,9.0,10.0,42,0.00,,FEW250,0.00,VWS V14.01,2013-08-28 19:40:00,
2013-08-28 14:45:00,92.0,64.9,29.91,South,179,4.0,10.0,41,0.00,,SCT250,0.00,VWS V14.01,2013-08-28 19:45:00,
2013-08-28 14:50:00,92.2,64.4,29.91,SW,228,3.0,7.0,40,0.00,,SCT250,0.00,VWS V14.01,2013-08-28 19:50:00,
2013-08-28 14:55:00,92.3,65.2,29.92,South,182,4.0,6.0,41,0.00,,SCT250,0.00,VWS V14.01,2013-08-28 19:55:00,
2013-08-28 15:00:00,92.3,64.5,29.91,SW,236,4.0,4.0,40,0.00,,SCT250,0.00,VWS V14.01,2013-08-28 20:00:00,
2013-08-28 15:05:00,92.1,65.0,29.91,SSW,201,8.0,9.0,41,0.00,,SCT250,0.00,VWS V14.01,2013-08-28 20:05:00,
2013-08-28 15:10:00,91.9,64.9,29.91,SSE,161,6.0,9.0,41,0.00,,SCT250,0.00,VWS V14.01,2013-08-28 20:10:00,
2013-08-28 15:31:00,91.5,64.5,29.91,South,179,7.0,11.0,41,0.00,,SCT250,0.00,VWS V14.01,2013-08-28 20:31:00,
2013-08-28 15:36:00,91.3,62.9,29.91,SSE,167,6.0,7.0,39,0.00,,SCT250,0.00,VWS V14.01,2013-08-28 20:36:00,
2013-08-28 15:44:00,91.3,63.6,29.91,SSE,156,7.0,9.0,40,0.00,,SCT250,0.00,VWS V14.01,2013-08-28 20:44:00,
2013-08-28 15:49:00,91.4,63.7,29.90,South,173,10.0,11.0,40,0.00,,SCT250,0.00,VWS V14.01,2013-08-28 20:49:00,
2013-08-28 15:54:00,91.3,64.3,29.90,SSE,147,4.0,11.0,41,0.00,,SCT250,0.00,VWS V14.01,2013-08-28 20:54:00,
2013-08-28 15:59:00,90.8,65.9,29.90,South,187,6.0,6.0,44,0.00,,SCT250,0.00,VWS V14.01,2013-08-28 20:59:00,
2013-08-28 16:04:00,90.1,65.3,29.90,SSE,163,7.0,10.0,44,0.00,,SCT250,0.00,VWS V14.01,2013-08-28 21:04:00,
2013-08-28 16:09:00,90.1,63.9,29.90,SSE,162,6.0,7.0,42,0.00,,SCT250,0.00,VWS V14.01,2013-08-28 21:09:00,
2013-08-28 16:14:00,90.5,65.6,29.90,South,172,6.0,8.0,44,0.00,,SCT250,0.00,VWS V14.01,2013-08-28 21:14:00,
2013-08-28 16:19:00,90.9,67.3,29.90,South,187,5.0,6.0,46,0.00,,SCT250,0.00,VWS V14.01,2013-08-28 21:19:00,
2013-08-28 16:24:00,91.1,66.8,29.90,South,181,6.0,9.0,45,0.00,,SCT250,0.00,VWS V14.01,2013-08-28 21:24:00,
2013-08-28 16:29:00,90.8,65.9,29.90,South,177,6.0,12.0,44,0.00,,SCT250,0.00,VWS V14.01,2013-08-28 21:29:00,
2013-08-28 16:34:00,90.4,64.9,29.90,SSW,193,7.0,9.0,43,0.00,,SCT250,0.00,VWS V14.01,2013-08-28 21:34:00,
2013-08-28 16:39:00,90.4,65.5,29.90,SSE,168,4.0,7.0,44,0.00,,SCT250,0.00,VWS V14.01,2013-08-28 21:39:00,
2013-08-28 16:44:00,90.2,66.0,29.90,South,173,6.0,6.0,45,0.00,,SCT250,0.00,VWS V14.01,2013-08-28 21:44:00,
2013-08-28 16:49:00,90.3,64.8,29.90,SW,232,2.0,3.0,43,0.00,,SCT250,0.00,VWS V14.01,2013-08-28 21:49:00,
2013-08-28 16:54:00,90.4,64.2,29.90,SSW,196,2.0,4.0,42,0.00,,SCT250,0.00,VWS V14.01,2013-08-28 21:54:00,
2013-08-28 16:59:00,90.5,65.0,29.90,SSW,193,4.0,5.0,43,0.00,,SCT250,0.00,VWS V14.01,2013-08-28 21:59:00,
2013-08-28 17:04:00,90.6,66.4,29.90,South,187,2.0,5.0,45,0.00,,SCT250,0.00,VWS V14.01,2013-08-28 22:04:00,
2013-08-28 17:09:00,90.5,66.3,29.90,SSW,197,4.0,7.0,45,0.00,,SCT250,0.00,VWS V14.01,2013-08-28 22:09:00,
2013-08-28 17:14:00,90.2,66.0,29.90,SSW,195,3.0,7.0,45,0.00,,SCT250,0.00,VWS V14.01,2013-08-28 22:14:00,
2013-08-28 17:19:00,89.7,68.0,29.90,South,182,4.0,7.0,49,0.00,,SCT250,0.00,VWS V14.01,2013-08-28 22:19:00,
2013-08-28 17:24:00,89.7,67.4,29.90,SSE,154,5.0,8.0,48,0.00,,SCT250,0.00,VWS V14.01,2013-08-28 22:24:00,
2013-08-28 17:29:00,89.0,68.5,29.90,SSE,164,5.0,7.0,51,0.00,,SCT250,0.00,VWS V14.01,2013-08-28 22:29:00,
2013-08-28 17:34:00,88.1,68.8,29.90,SSE,159,6.0,7.0,53,0.00,,SCT250,0.00,VWS V14.01,2013-08-28 22:34:00,
2013-08-28 17:39:00,87.8,69.6,29.90,SSE,156,5.0,7.0,55,0.00,,SCT250,0.00,VWS V14.01,2013-08-28 22:39:00,
2013-08-28 17:44:00,88.0,69.8,29.90,SSE,165,2.0,6.0,55,0.00,,SCT250,0.00,VWS V14.01,2013-08-28 22:44:00,
2013-08-28 17:49:00,88.2,69.5,29.90,SSE,151,6.0,8.0,54,0.00,,SCT250,0.00,VWS V14.01,2013-08-28 22:49:00,
2013-08-28 17:54:00,88.1,68.8,29.90,SSE,147,4.0,6.0,53,0.00,,SCT250,0.00,VWS V14.01,2013-08-28 22:54:00,
2013-08-28 17:59:00,88.0,69.3,29.90,SSE,167,3.0,7.0,54,0.00,,SCT250,0.00,VWS V14.01,2013-08-28 22:59:00,
2013-08-28 18:04:00,87.5,68.8,29.90,SSE,152,4.0,7.0,54,0.00,,SCT250,0.00,VWS V14.01,2013-08-28 23:04:00,
2013-08-28 18:09:00,87.2,69.1,29.90,SSE,162,3.0,6.0,55,0.00,,SCT250,0.00,VWS V14.01,2013-08-28 23:09:00,
2013-08-28 18:14:00,87.0,69.4,29.90,South,179,6.0,7.0,56,0.00,,SCT250,0.00,VWS V14.01,2013-08-28 23:14:00,
2013-08-28 18:20:00,86.8,69.8,29.90,South,182,3.0,4.0,57,0.00,,SCT250,0.00,VWS V14.01,2013-08-28 23:20:00,
2013-08-28 18:25:00,86.5,69.5,29.90,South,174,3.0,4.0,57,0.00,,SCT250,0.00,VWS V14.01,2013-08-28 23:25:00,
2013-08-28 18:30:00,86.2,70.2,29.91,South,170,2.0,3.0,59,0.00,,SCT250,0.00,VWS V14.01,2013-08-28 23:30:00,
2013-08-28 18:35:00,85.7,69.7,29.91,South,171,3.0,4.0,59,0.00,,SCT250,0.00,VWS V14.01,2013-08-28 23:35:00,
2013-08-28 18:40:00,85.5,70.5,29.91,South,172,4.0,4.0,61,0.00,,SCT250,0.00,VWS V14.01,2013-08-28 23:40:00,
2013-08-28 18:45:00,85.1,70.2,29.91,South,181,4.0,4.0,61,0.00,,BKN250,0.00,VWS V14.01,2013-08-28 23:45:00,
2013-08-28 18:50:00,84.9,69.5,29.91,South,177,3.0,5.0,60,0.00,,BKN250,0.00,VWS V14.01,2013-08-28 23:50:00,
2013-08-28 18:55:00,84.7,69.8,29.91,South,182,3.0,4.0,61,0.00,,BKN250,0.00,VWS V14.01,2013-08-28 23:55:00,
2013-08-28 19:00:00,84.6,70.2,29.91,South,180,2.0,2.0,62,0.00,,BKN250,0.00,VWS V14.01,2013-08-29 00:00:00,
2013-08-28 19:05:00,84.3,69.9,29.91,South,179,1.0,4.0,62,0.00,,BKN250,0.00,VWS V14.01,2013-08-29 00:05:00,
2013-08-28 19:10:00,84.1,70.6,29.91,South,179,3.0,3.0,64,0.00,,BKN250,0.00,VWS V14.01,2013-08-29 00:10:00,
2013-08-28 19:15:00,83.9,70.4,29.91,South,179,2.0,3.0,64,0.00,,BKN250,0.00,VWS V14.01,2013-08-29 00:15:00,
2013-08-28 19:20:00,83.7,70.2,29.90,South,179,3.0,4.0,64,0.00,,BKN250,0.00,VWS V14.01,2013-08-29 00:20:00,
2013-08-28 19:25:00,83.5,70.5,29.90,South,181,2.0,2.0,65,0.00,,BKN250,0.00,VWS V14.01,2013-08-29 00:25:00,
2013-08-28 19:30:00,83.4,69.9,29.90,South,181,4.0,5.0,64,0.00,,BKN250,0.00,VWS V14.01,2013-08-29 00:30:00,
2013-08-28 19:35:00,83.2,70.2,29.90,South,181,2.0,4.0,65,0.00,,BKN250,0.00,VWS V14.01,2013-08-29 00:35:00,
2013-08-28 19:40:00,83.0,70.0,29.91,South,183,2.0,3.0,65,0.00,,BKN250,0.00,VWS V14.01,2013-08-29 00:40:00,
2013-08-28 19:45:00,83.0,70.9,29.90,South,183,0.0,0.0,67,0.00,,BKN250,0.00,VWS V14.01,2013-08-29 00:45:00,
2013-08-28 19:50:00,82.9,70.8,29.91,South,183,0.0,1.0,67,0.00,,BKN250,0.00,VWS V14.01,2013-08-29 00:50:00,
2013-08-28 19:55:00,82.7,70.2,29.90,South,183,1.0,1.0,66,0.00,,BKN250,0.00,VWS V14.01,2013-08-29 00:55:00,
2013-08-28 20:00:00,82.6,70.5,29.90,South,183,0.0,1.0,67,0.00,,BKN250,0.00,VWS V14.01,2013-08-29 01:00:00,
2013-08-28 20:05:00,82.5,70.4,29.90,South,183,1.0,1.0,67,0.00,,BKN250,0.00,VWS V14.01,2013-08-29 01:05:00,
2013-08-28 20:10:00,82.3,70.3,29.91,South,183,1.0,2.0,67,0.00,,BKN250,0.00,VWS V14.01,2013-08-29 01:10:00,
2013-08-28 20:15:00,82.1,70.5,29.90,South,183,0.0,0.0,68,0.00,,BKN250,0.00,VWS V14.01,2013-08-29 01:15:00,
2013-08-28 20:20:00,81.9,70.3,29.90,South,183,0.0,1.0,68,0.00,,BKN250,0.00,VWS V14.01,2013-08-29 01:20:00,
2013-08-28 20:25:00,81.6,70.4,29.91,South,183,0.0,1.0,69,0.00,,BKN250,0.00,VWS V14.01,2013-08-29 01:25:00,
2013-08-28 20:30:00,81.5,70.4,29.91,South,183,1.0,1.0,69,0.00,,BKN250,0.00,VWS V14.01,2013-08-29 01:30:00,
2013-08-28 20:35:00,81.4,69.8,29.91,South,183,1.0,2.0,68,0.00,,BKN250,0.00,VWS V14.01,2013-08-29 01:35:00,
2013-08-28 20:40:00,81.3,70.2,29.91,South,183,0.0,3.0,69,0.00,,BKN250,0.00,VWS V14.01,2013-08-29 01:40:00,
2013-08-28 20:45:00,81.2,70.1,29.91,South,183,2.0,2.0,69,0.00,,BKN250,0.00,VWS V14.01,2013-08-29 01:45:00,
2013-08-28 20:50:00,81.1,70.0,29.91,South,180,2.0,3.0,69,0.00,,BKN250,0.00,VWS V14.01,2013-08-29 01:50:00,
2013-08-28 20:55:00,80.9,70.2,29.91,South,180,2.0,3.0,70,0.00,,BKN250,0.00,VWS V14.01,2013-08-29 01:55:00,
2013-08-28 21:00:00,80.7,70.4,29.92,South,180,0.0,1.0,71,0.00,,BKN250,0.00,VWS V14.01,2013-08-29 02:00:00,
2013-08-28 21:05:00,80.5,69.8,29.92,South,180,0.0,1.0,70,0.00,,BKN250,0.00,VWS V14.01,2013-08-29 02:05:00,
2013-08-28 21:10:00,80.3,69.6,29.92,South,180,1.0,3.0,70,0.00,,BKN250,0.00,VWS V14.01,2013-08-29 02:10:00,
2013-08-28 21:16:00,80.0,69.8,29.91,South,180,1.0,3.0,71,0.00,,BKN250,0.00,VWS V14.01,2013-08-29 02:16:00,
2013-08-28 21:21:00,79.8,69.6,29.91,South,180,0.0,1.0,71,0.00,,BKN250,0.00,VWS V14.01,2013-08-29 02:21:00,
2013-08-28 21:26:00,79.7,69.5,29.92,South,180,0.0,1.0,71,0.00,,BKN250,0.00,VWS V14.01,2013-08-29 02:26:00,
2013-08-28 21:31:00,79.6,69.4,29.92,South,180,0.0,1.0,71,0.00,,BKN250,0.00,VWS V14.01,2013-08-29 02:31:00,
2013-08-28 21:36:00,79.6,69.4,29.92,South,180,1.0,2.0,71,0.00,,BKN250,0.00,VWS V14.01,2013-08-29 02:36:00,
2013-08-28 21:41:00,79.4,69.6,29.92,South,180,0.0,0.0,72,0.00,,BKN250,0.00,VWS V14.01,2013-08-29 02:41:00,
2013-08-28 21:46:00,79.1,69.7,29.92,South,180,0.0,0.0,73,0.00,,BKN250,0.00,VWS V14.01,2013-08-29 02:46:00,
2013-08-28 21:51:00,78.8,69.0,29.92,South,180,0.0,1.0,72,0.00,,BKN250,0.00,VWS V14.01,2013-08-29 02:51:00,
2013-08-28 21:56:00,78.8,69.0,29.92,South,180,1.0,2.0,72,0.00,,BKN250,0.00,VWS V14.01,2013-08-29 02:56:00,
2013-08-28 22:01:00,78.7,68.9,29.92,South,180,0.0,1.0,72,0.00,,BKN250,0.00,VWS V14.01,2013-08-29 03:01:00,
2013-08-28 22:06:00,78.6,68.8,29.92,South,180,1.0,2.0,72,0.00,,BKN250,0.00,VWS V14.01,2013-08-29 03:06:00,
2013-08-28 22:11:00,78.7,68.5,29.92,South,180,2.0,3.0,71,0.00,,BKN250,0.00,VWS V14.01,2013-08-29 03:11:00,
2013-08-28 22:16:00,78.8,68.6,29.92,South,180,1.0,2.0,71,0.00,,BKN250,0.00,VWS V14.01,2013-08-29 03:16:00,
2013-08-28 22:21:00,78.9,68.3,29.92,South,180,0.0,1.0,70,0.00,,BKN250,0.00,VWS V14.01,2013-08-29 03:21:00,
2013-08-28 22:26:00,79.0,68.4,29.92,South,180,2.0,2.0,70,0.00,,BKN250,0.00,VWS V14.01,2013-08-29 03:26:00,
2013-08-28 22:31:00,79.0,68.4,29.92,South,181,1.0,3.0,70,0.00,,BKN250,0.00,VWS V14.01,2013-08-29 03:31:00,
2013-08-28 22:36:00,78.8,68.6,29.92,South,180,3.0,3.0,71,0.00,,BKN250,0.00,VWS V14.01,2013-08-29 03:36:00,
2013-08-28 22:41:00,78.7,68.5,29.92,SSW,209,3.0,3.0,71,0.00,,BKN250,0.00,VWS V14.01,2013-08-29 03:41:00,
2013-08-28 22:46:00,78.5,68.3,29.92,South,187,1.0,3.0,71,0.00,,BKN250,0.00,VWS V14.01,2013-08-29 03:46:00,
2013-08-28 22:51:00,78.4,68.2,29.92,South,187,2.0,3.0,71,0.00,,BKN250,0.00,VWS V14.01,2013-08-29 03:51:00,
2013-08-28 22:56:00,78.3,68.5,29.92,South,187,2.0,3.0,72,0.00,,BKN250,0.00,VWS V14.01,2013-08-29 03:56:00,
2013-08-28 23:01:00,78.2,68.4,29.92,South,187,3.0,3.0,72,0.00,,BKN250,0.00,VWS V14.01,2013-08-29 04:01:00,
2013-08-28 23:02:00,78.2,68.4,29.92,South,188,2.0,4.0,72,0.00,,BKN250,0.00,VWS V14.01,2013-08-29 04:02:00,
2013-08-28 23:07:00,78.0,68.7,29.92,South,189,3.0,5.0,73,0.00,,BKN250,0.00,VWS V14.01,2013-08-29 04:07:00,
2013-08-28 23:12:00,77.8,68.9,29.92,South,189,3.0,4.0,74,0.00,,BKN250,0.00,VWS V14.01,2013-08-29 04:12:00,
2013-08-28 23:17:00,77.8,68.9,29.92,South,189,1.0,4.0,74,0.00,,BKN250,0.00,VWS V14.01,2013-08-29 04:17:00,
2013-08-28 23:22:00,77.7,69.2,29.92,South,189,4.0,5.0,75,0.00,,BKN250,0.00,VWS V14.01,2013-08-29 04:22:00,
2013-08-28 23:27:00,77.5,69.0,29.92,South,190,2.0,3.0,75,0.00,,BKN250,0.00,VWS V14.01,2013-08-29 04:27:00,
2013-08-28 23:32:00,77.5,69.3,29.92,South,190,0.0,1.0,76,0.00,,BKN250,0.00,VWS V14.01,2013-08-29 04:32:00,
2013-08-28 23:37:00,77.4,69.2,29.92,South,190,0.0,2.0,76,0.00,,BKN250,0.00,VWS V14.01,2013-08-29 04:37:00,
2013-08-28 23:42:00,77.3,69.2,29.92,South,190,1.0,2.0,76,0.00,,BKN250,0.00,VWS V14.01,2013-08-29 04:42:00,
2013-08-28 23:47:00,77.3,69.2,29.92,South,190,0.0,1.0,76,0.00,,BKN250,0.00,VWS V14.01,2013-08-29 04:47:00,
2013-08-28 23:52:00,77.3,69.2,29.92,South,190,0.0,0.0,76,0.00,,BKN250,0.00,VWS V14.01,2013-08-29 04:52:00,
2013-08-28 23:57:00,77.2,69.1,29.92,South,190,3.0,3.0,76,0.00,,BKN250,0.00,VWS V14.01,2013-08-29 04:57:00,